Regional Weather Roundup
Issued by NWS

Home | Current Version | Previous Version | Graphics & Text | Print | Product List | Glossary On
Versions: 1 2 3 4 5 6 7 8 9 10 11 12 13 14 15 16 17 18 19 20 21 22 23 24 25 26 27 28 29 30 31 32 33 34 35 36 37 38 39 40 41 42 43 44 45 46 47 48 49 50
427
ASUS45 KSLC 301210
RWRUT

UTAH REGIONAL WEATHER ROUNDUP
NATIONAL WEATHER SERVICE SALT LAKE CITY UT
600 AM MDT FRI SEP 30 2016

UTZ001>011-023>025-301300-

NORTHERN UTAH

CITY           SKY/WX    TMP DP  RH WIND       PRES   REMARKS
BRIGHAM CITY     N/A     53  49  88 N6        30.19S
HILL AFB       PTCLDY    60  47  62 E5        30.20S
LOGAN          MOCLDY    50  49  96 CALM      30.20S
OGDEN          PTCLDY    58  48  69 CALM      30.19R
PROVO AIRPORT  PTCLDY    57  48  72 S6        30.24R
SALT LAKE CITY PTCLDY    63  50  62 SE10      30.18R
VERNAL         CLOUDY    51  48  89 NW3       30.31S
WENDOVER       MOCLDY    57  48  72 NE5       30.17S
HEBER CITY     PTCLDY    46  43  87 CALM      30.28R
WEST JORDAN    MOCLDY    62  47  59 S15       30.21S

$$

UTZ012>022-026-027-301300-

SOUTHERN/CENTRAL UTAH

CITY           SKY/WX    TMP DP  RH WIND       PRES   REMARKS
BLANDING       PTCLDY    52  50  93 N3        30.43S
BRYCE CANYON   CLOUDY    47  45  93 CALM      30.42S
CEDAR CITY     CLEAR     50  44  80 SE3       30.29S
DELTA          CLEAR     57  46  67 S9        30.23S
MILFORD        CLEAR     53  47  79 S8        30.26R
MOAB/CYNLANDS  CLOUDY    58  55  90 CALM      30.28S
PRICE          CLOUDY    55  51  86 CALM      30.34S
ST GEORGE      CLOUDY    66  52  59 E5        30.21S

$$

REGIONAL REPORTS     COLORADO/ARIZONA

CITY           SKY/WX    TMP DP  RH WIND       PRES   REMARKS
CRAIG, CO      CLOUDY    53  50  89 CALM      30.35S
GRAND JUNCTION CLOUDY    57  55  93 E3        30.31S
RIFLE          CLOUDY    56  55  97 CALM      30.35R
MONTROSE       CLOUDY    54  52  93 CALM      30.37S
CORTEZ         CLOUDY    48  46  93 E5        30.36S
PAGE, AZ       CLOUDY    61  56  83 CALM      30.27R
GRAND CANYON   PTCLDY    45  43  93 CALM      30.37S
KINGMAN        CLEAR     63  44  50 S6        30.17S
FLAGSTAFF      CLEAR     43  43 100 CALM      30.38S

$$

REGIONAL REPORTS    NEVADA/IDAHO/WYOMING

CITY           SKY/WX    TMP DP  RH WIND       PRES   REMARKS
LAS VEGAS, NV  MOCLDY    73  43  33 SW3       30.08S
ELY            PTCLDY    45  39  79 S10       30.30S
ELKO           PTCLDY    50  43  77 E5        30.20S
POCATELLO, ID  CLEAR     48  46  93 NW9       30.18R
BURLEY         PTCLDY    52  48  86 E3        30.13R
EVANSTON, WY   CLEAR     47  39  74 S7        30.33S
ROCK SPRINGS   CLOUDY    51  45  79 SW6       30.32S

$$




USA.gov is the U.S. government's official web portal to all federal, state and local government web resources and services.